Terminal Aerodrome Forecast
Issued by NWS Lake Charles, LA

Home | Current Version | Previous Version | Text Only | Print | Product List | Glossary On
Versions: 1 2 3 4 5 6 7 8 9 10 11 12 13 14 15 16
000
FTUS44 KLCH 252031 AAA
TAFBPT
TAF AMD
KBPT 252031Z 2521/2618 19006KT P6SM VCTS SCT050CB OVC080
      TEMPO 2522/2602 VRB15G25KT 2SM +TSRA OVC030CB
     FM260200 06004KT P6SM FEW050 BKN150
     FM261500 06007KT P6SM VCTS SCT035CB BKN250=

USA.gov is the U.S. government's official web portal to all federal, state and local government web resources and services.